Location: Bishop�s Knoyle
(51.0728°N, 2.1714°W)
Time: 17:27:09
(UTC+00:00)

CUTE-I - Visible Passes

Search period start: 03 December 2021 00:00
Search period end: 13 December 2021 00:00
Orbit: 811 x 824 km, 98.7° (Epoch: 03 December)

Date Brightness Start Highest point End Pass type
(mag) Time Alt. Az. Time Alt. Az. Time Alt. Az.
03 Dec ? 06:14:16 10° NNE 06:19:30 50° E 06:24:43 10° S visible
03 Dec ? 17:41:13 10° S 17:46:31 66° WSW 17:51:53 10° NNW visible
03 Dec ? 19:26:13 10° W 19:27:36 11° W 19:28:59 10° WNW visible
04 Dec ? 05:52:54 10° NNE 05:57:49 34° E 06:02:40 10° SSE visible
04 Dec ? 17:19:35 10° SSE 17:24:56 86° ENE 17:30:20 10° NNW visible
04 Dec ? 19:02:19 10° SW 19:05:41 17° W 19:09:04 10° NW visible
05 Dec ? 05:31:45 10° NE 05:36:02 24° E 05:40:17 10° SE visible
05 Dec ? 07:11:09 10° N 07:16:30 63° WNW 07:21:47 10° SSW visible
05 Dec ? 16:58:09 10° SSE 17:03:24 60° ENE 17:08:42 10° N visible
05 Dec ? 18:39:32 10° SW 18:43:50 24° W 18:48:11 10° NW visible
06 Dec ? 05:10:54 10° NE 05:14:10 16° E 05:17:26 10° SE visible
06 Dec ? 06:49:32 10° NNE 06:54:58 89° WNW 07:00:21 10° SSW visible
06 Dec ? 16:36:57 10° SE 16:41:57 42° ENE 16:47:00 10° N visible
06 Dec ? 18:17:12 10° SSW 18:22:04 35° W 18:26:59 10° NNW visible
07 Dec ? 04:51:15 10° ENE 04:52:15 10° E 04:53:15 10° E visible
07 Dec ? 06:28:00 10° NNE 06:33:22 63° ESE 06:38:41 10° S visible
07 Dec ? 17:55:10 10° S 18:00:22 52° W 18:05:38 10° NNW visible
08 Dec ? 06:06:34 10° NNE 06:11:43 43° E 06:16:48 10° S visible
08 Dec ? 17:33:24 10° S 17:38:44 76° WSW 17:44:08 10° NNW visible
08 Dec ? 19:17:20 10° WSW 19:19:42 13° W 19:22:05 10° WNW visible
09 Dec ? 05:45:16 10° NNE 05:49:59 30° E 05:54:39 10° SSE visible
09 Dec ? 17:11:50 10° SSE 17:17:10 76° ENE 17:22:34 10° NNW visible
09 Dec ? 18:54:02 10° SW 18:57:48 19° W 19:01:36 10° NW visible
10 Dec ? 05:24:11 10° NE 05:28:10 21° E 05:32:08 10° SE visible
10 Dec ? 07:03:22 10° NNE 07:08:45 72° WNW 07:14:05 10° SSW visible
10 Dec ? 16:50:29 10° SE 16:55:40 53° ENE 17:00:54 10° N visible
10 Dec ? 18:31:27 10° SSW 18:35:59 28° W 18:40:35 10° NW visible
11 Dec ? 05:03:32 10° NE 05:06:17 14° E 05:09:01 10° ESE visible
11 Dec ? 06:41:46 10° NNE 06:47:12 80° ESE 06:52:35 10° SSW visible
11 Dec ? 18:09:14 10° SSW 18:14:14 40° W 18:19:19 10° NNW visible
12 Dec ? 06:20:16 10° NNE 06:25:35 55° E 06:30:50 10° S visible
12 Dec ? 17:47:17 10° S 17:52:34 59° WSW 17:57:54 10° NNW visible
